Orbital Elements at Epoch 2459200.5 (2020-Dec-17.0) TDB
Reference: JPL 8 (heliocentric ecliptic J2000)
Element | Value | Uncertainty (1-sigma) | Units |
e | .08105432041548687 | 5.8628e-08 | |
a | 3.070062599470503 | 3.2067e-08 | au |
q | 2.821220761837418 | 1.7261e-07 | au |
i | 3.738869320249094 | 6.6236e-06 | deg |
node | 158.2175100805524 | 0.00012184 | deg |
peri | 311.4690281534711 | 0.00013434 | deg |
M | 157.820562871481 | 5.8889e-05 | deg |
tp | 2458339.148606788650 (2018-Aug-08.64860679) | 0.000315 | TDB |
period | 1964.804179596043 5.38 | 3.0784e-05 8.428e-08 | d yr |
n | .183224365938602 | 2.8707e-09 | deg/d |
Q | 3.318904437103587 | 3.4667e-08 | au |
|
| | Orbit Determination Parameters
Additional Information
|